Location: Apeadero de Los Molinos-Guadarrama
(40.7091°N, 4.0689°W)
Time: 15:51:55
(UTC+00:00)

X-37B - Pass Details

Date: 30 September 2021
Orbit: 385 x 389 km, 45.0° (Epoch: 17 October)

Event Time Altitude Azimuth Distance (km) Brightness Sun altitude
Exits shadow 03:39:22 14° 61° (ENE) 1,191 3.9 -29.0°
Drops below altitude 10° 03:39:58 10° 66° (ENE) 1,413 4.4 -28.9°
Sets 03:42:09 0° 75° (ENE) 2,269 5.7 -28.6°
